[[{"header":{"parameterUnit":"m.s-1","parameterCategory":1,"la1":30.2991,"la2":30.254,"lo1":-89.0895,"lo2":-89.0444,"dy":0.0017,"dx":0.0017,"nx":28,"ny":28,"refTime":"2023-10-16T09:00:00:Z","depth":0,"parameterNumber":2,"parameterNumberName":"U-component_of_WINDS"},"data":[0,0,0,0,0,0,0,0,0,0,0,0,0,0,0,0,0,0,0,0,0,0,0,0,0,0,0,0,0,0,0,0,0,0,0,0,0,0,0,0,0,0,0,0,0,0,0,0,0,0,0,0,0,0,0,0,0,0,0.7625,0.7625,0,0.7663,0.7664,0.7664,0.7699,0.77,0.77,0.77,0.774,0.7741,0.7742,0,0,0,0,0,0,0,0,0,0,0,0,0,0.7584,0.7585,0.7625,0.7626,0.7626,0.7663,0.7664,0.7664,0.7699,0.77,0.77,0.7701,0.774,0.7741,0.7742,0,0,0,0,0,0,0,0,0,0,0,0,0,0.761,0.7585,0.7625,0.7648,0.765,0.7663,0.7664,0.7664,0.7699,0.77,0.77,0.7701,0.774,0.7741,0.7742,0.7735,0,0,0.7745,0.7745,0,0,0,0,0,0,0,0,0.7608,0.7611,0.7644,0.7646,0.7649,0.7677,0.7664,0.7688,0.7699,0.7681,0.77,0.7701,0.7719,0.7722,0.7727,0.7737,0.7738,0.7745,0.7745,0.7746,0.7746,0,0,0,0,0,0,0,0.7607,0.761,0.764,0.7645,0.7648,0.7657,0.7661,0.7668,0.7696,0.7682,0.7685,0.7689,0.772,0.7726,0.7728,0.7739,0.7745,0.7746,0.7746,0.7747,0.7745,0.7745,0,0,0,0,0,0,0.7601,0.7608,0.7639,0.7641,0.763,0.7657,0.7662,0.7667,0.7696,0.7701,0.7688,0.769,0.7724,0.7727,0.773,0.7724,0.7746,0.7747,0.7747,0.7746,0.7745,0.7744,0,0,0,0,0,0,0.76,0.7604,0.7637,0.7626,0.7631,0.7657,0.7663,0.7668,0.7674,0.77,0.7705,0.7689,0.7725,0.7729,0.7733,0.7726,0.7747,0.7748,0.7747,0.7746,0.7745,0.7711,0,0,0,0,0,0,0.7599,0.7603,0.76,0.7625,0.7631,0.764,0.7662,0.7668,0.7675,0.7678,0.7702,0.7707,0.7726,0.7732,0.7734,0.7727,0.7749,0.7747,0.7746,0.7745,0.7713,0.7709,0.7706,0,0,0,0,0,0.7597,0.7589,0.76,0.7603,0.7628,0.7639,0.7642,0.7664,0.7675,0.7672,0.7689,0.7706,0.7726,0.7732,0.7735,0.7728,0.7748,0.7747,0.7745,0.7715,0.771,0.7706,0,0,0,0,0,0,0.7563,0.7593,0.7605,0.7605,0.7619,0.7645,0.7643,0.7658,0.767,0.7672,0.7698,0.7704,0.7705,0.7718,0.7723,0.7724,0.774,0.7739,0.7715,0.7711,0.7707,0.7704,0.775,0,0,0,0,0,0.7555,0.7561,0.7588,0.7585,0.7592,0.7616,0.7621,0.7637,0.7653,0.7659,0.7676,0.7691,0.7701,0.7707,0.7717,0.7715,0.7721,0.7712,0.7709,0.7706,0.7704,0.7704,0.7701,0.774,0.774,0.774,0,0,0.754,0.7557,0.7559,0.7579,0.7591,0.7597,0.7621,0.7626,0.7631,0.766,0.7665,0.7679,0.7697,0.7699,0.77,0.7709,0.7695,0.7704,0.7701,0.7702,0.7703,0.7699,0.7696,0.7739,0.7739,0.7739,0,0,0.7514,0.7528,0.7527,0.754,0.7559,0.7575,0.7575,0.7599,0.7608,0.7614,0.7636,0.7643,0.7659,0.7671,0.768,0.766,0.7676,0.7663,0.7643,0.7643,0.764,0.7637,0.763,0.7627,0.7661,0.7661,0.7661,0,0.7492,0.7502,0.7525,0.7529,0.7537,0.7564,0.7563,0.7574,0.7596,0.7601,0.7611,0.7632,0.7646,0.7651,0.7646,0.7652,0.7653,0.7659,0.7638,0.7636,0.7634,0.7627,0.7624,0.7659,0.766,0.766,0.766,0,0.7474,0.748,0.7478,0.7497,0.7505,0.7507,0.7531,0.7536,0.7551,0.7567,0.7573,0.7591,0.7606,0.7608,0.7623,0.7615,0.762,0.7633,0.765,0.7628,0.7622,0.762,0.7657,0.7658,0.7658,0.7659,0,0,0.7427,0.746,0.7459,0.7468,0.7491,0.7497,0.75,0.7515,0.7518,0.7533,0.7536,0.755,0.7563,0.7572,0.7589,0.7589,0.7571,0.7603,0.7603,0.7596,0.7564,0.7553,0.7549,0.7583,0.7582,0.7582,0.7562,0,0.7405,0.7412,0.7433,0.7434,0.744,0.7466,0.7469,0.7484,0.7499,0.7506,0.7523,0.7532,0.7549,0.7555,0.7556,0.7573,0.7565,0.7575,0.7586,0.7586,0.7579,0.7546,0.7534,0.7515,0.756,0.756,0.7559,0,0.738,0.7392,0.7393,0.7417,0.742,0.7422,0.7437,0.7444,0.7462,0.7473,0.7484,0.7502,0.7507,0.7523,0.7531,0.7537,0.7543,0.7553,0.7553,0.7554,0.7571,0.7546,0.7509,0.7506,0.7556,0.7556,0.7556,0,0.7345,0.7362,0.7365,0.7372,0.74,0.74,0.7412,0.743,0.7438,0.7451,0.7456,0.747,0.7477,0.7488,0.751,0.7519,0.7515,0.7533,0.7524,0.7523,0.7521,0.7521,0.7484,0.7526,0.7526,0.7526,0.7526,0,0.7317,0.7317,0.7349,0.7351,0.7351,0.7376,0.7376,0.739,0.7407,0.7412,0.7436,0.744,0.7469,0.7477,0.7494,0.7498,0.7501,0.751,0.7515,0.7508,0.7506,0.7511,0.7513,0.7526,0.7526,0.7526,0.7526,0,0.7278,0.7299,0.7304,0.733,0.7337,0.7336,0.7358,0.7361,0.7377,0.7384,0.7387,0.7413,0.7423,0.7446,0.7463,0.7475,0.7474,0.7483,0.7468,0.7471,0.746,0.7461,0.7425,0.7421,0.7466,0.7466,0.7465,0,0.7258,0.7259,0.7284,0.7289,0.73,0.7308,0.7315,0.734,0.7347,0.7368,0.7368,0.7381,0.7392,0.7408,0.7428,0.7442,0.745,0.7437,0.7452,0.7445,0.7449,0.7449,0.7449,0.7433,0.7432,0.7432,0.7431,0,0.7222,0.7233,0.7242,0.7256,0.7264,0.7276,0.7289,0.7292,0.7321,0.7327,0.7338,0.7347,0.7364,0.7376,0.7393,0.7405,0.7423,0.7426,0.7425,0.7417,0.7408,0.7413,0.7458,0.7427,0.7427,0.7428,0.7428,0.7428,0.7191,0.7193,0.7211,0.7221,0.7234,0.7246,0.725,0.7267,0.7276,0.7292,0.7307,0.7316,0.7335,0.7358,0.737,0.7378,0.7387,0.7385,0.7384,0.7383,0.738,0.7408,0.7381,0.7381,0.7381,0.7382,0.7382,0,0.7155,0.7169,0.7178,0.7195,0.7203,0.722,0.7235,0.7241,0.7249,0.7265,0.7275,0.7288,0.73,0.7322,0.7336,0.7338,0.7346,0.7341,0.734,0.7343,0.7371,0.7371,0.7334,0.7334,0.7334,0.7334,0.7334,0.7334,0.7137,0.7141,0.7154,0.7164,0.7177,0.7186,0.7194,0.7205,0.7218,0.7231,0.7241,0.7255,0.7273,0.7289,0.73,0.7307,0.731,0.7302,0.731,0.7336,0.7341,0.7345,0.7345,0.7303,0.7303,0.7281,0.7281,0.7281]},{"header":{"parameterUnit":"m.s-1","parameterCategory":1,"la1":30.2991,"la2":30.254,"lo1":-89.0895,"lo2":-89.0444,"dy":0.0017,"dx":0.0017,"nx":28,"ny":28,"refTime":"2023-10-16T09:00:00:Z","depth":0,"parameterNumber":3,"parameterNumberName":"V-component_of_WINDS"},"data":[0,0,0,0,0,0,0,0,0,0,0,0,0,0,0,0,0,0,0,0,0,0,0,0,0,0,0,0,0,0,0,0,0,0,0,0,0,0,0,0,0,0,0,0,0,0,0,0,0,0,0,0,0,0,0,0,0,0,-1.3254,-1.3254,0,-1.331,-1.3311,-1.3312,-1.3333,-1.3333,-1.3333,-1.3333,-1.339,-1.3392,-1.3394,0,0,0,0,0,0,0,0,0,0,0,0,0,-1.3165,-1.3167,-1.3253,-1.3254,-1.3255,-1.331,-1.3311,-1.3312,-1.3333,-1.3333,-1.3333,-1.3332,-1.339,-1.3392,-1.3394,0,0,0,0,0,0,0,0,0,0,0,0,0,-1.3211,-1.3167,-1.3253,-1.3272,-1.3275,-1.331,-1.3311,-1.3312,-1.3333,-1.3333,-1.3333,-1.3332,-1.3389,-1.3392,-1.3394,-1.3415,0,0,-1.3402,-1.3403,0,0,0,0,0,0,0,0,-1.3208,-1.3214,-1.3269,-1.3271,-1.3274,-1.3314,-1.3301,-1.3346,-1.3333,-1.3311,-1.3333,-1.3332,-1.3365,-1.337,-1.3381,-1.3418,-1.342,-1.3402,-1.3404,-1.3405,-1.3406,0,0,0,0,0,0,0,-1.3205,-1.3212,-1.3276,-1.327,-1.3273,-1.3278,-1.3285,-1.331,-1.3339,-1.3313,-1.3314,-1.3321,-1.3367,-1.3378,-1.3383,-1.3421,-1.3402,-1.3404,-1.3406,-1.3407,-1.348,-1.3481,0,0,0,0,0,0,-1.3199,-1.3209,-1.3274,-1.3278,-1.324,-1.328,-1.3287,-1.3301,-1.3339,-1.3344,-1.3321,-1.3322,-1.3374,-1.338,-1.3385,-1.3413,-1.3405,-1.3407,-1.3409,-1.348,-1.348,-1.3481,0,0,0,0,0,0,-1.3197,-1.3204,-1.3272,-1.3244,-1.3253,-1.3282,-1.3298,-1.3303,-1.3315,-1.3345,-1.335,-1.3328,-1.3374,-1.3381,-1.3408,-1.3416,-1.3408,-1.3411,-1.3479,-1.348,-1.3481,-1.3469,0,0,0,0,0,0,-1.3194,-1.3203,-1.3211,-1.3244,-1.3254,-1.3294,-1.3298,-1.3304,-1.3319,-1.332,-1.3353,-1.3358,-1.3375,-1.3404,-1.341,-1.3419,-1.3413,-1.3479,-1.348,-1.348,-1.3469,-1.347,-1.347,0,0,0,0,0,-1.3191,-1.3205,-1.3211,-1.3219,-1.3265,-1.3294,-1.33,-1.3319,-1.3319,-1.3328,-1.3348,-1.3357,-1.3413,-1.3407,-1.3414,-1.3423,-1.3479,-1.3479,-1.348,-1.3469,-1.347,-1.347,0,0,0,0,0,0,-1.3172,-1.321,-1.3217,-1.3242,-1.3265,-1.3298,-1.3309,-1.3319,-1.3342,-1.3342,-1.3365,-1.3372,-1.3397,-1.3413,-1.3404,-1.3447,-1.3447,-1.3449,-1.3436,-1.3436,-1.3437,-1.3433,-1.3415,0,0,0,0,0,-1.3171,-1.3191,-1.3223,-1.3243,-1.3254,-1.3279,-1.3293,-1.3306,-1.333,-1.334,-1.3361,-1.3385,-1.3408,-1.3423,-1.3446,-1.3471,-1.348,-1.3482,-1.3482,-1.3482,-1.3484,-1.3501,-1.3503,-1.3484,-1.3484,-1.3484,0,0,-1.3168,-1.3192,-1.3203,-1.3239,-1.3258,-1.328,-1.3287,-1.3309,-1.3326,-1.3343,-1.337,-1.3387,-1.3415,-1.3442,-1.3454,-1.3455,-1.3491,-1.3483,-1.3483,-1.3485,-1.3502,-1.3504,-1.3506,-1.3485,-1.3484,-1.3484,0,0,-1.3176,-1.3194,-1.3214,-1.3233,-1.3262,-1.328,-1.3284,-1.3316,-1.3328,-1.3356,-1.337,-1.339,-1.3429,-1.3449,-1.3464,-1.3481,-1.3491,-1.3488,-1.349,-1.3506,-1.3507,-1.3509,-1.3517,-1.3519,-1.349,-1.349,-1.349,0,-1.3169,-1.3202,-1.3222,-1.3244,-1.3261,-1.3278,-1.3299,-1.3316,-1.3351,-1.3362,-1.3363,-1.3414,-1.3433,-1.3466,-1.3471,-1.3482,-1.3489,-1.3484,-1.3505,-1.3507,-1.3509,-1.3517,-1.3519,-1.3489,-1.3489,-1.3489,-1.3489,0,-1.3193,-1.3216,-1.3228,-1.3263,-1.328,-1.3301,-1.3326,-1.3341,-1.3353,-1.337,-1.3399,-1.3424,-1.3453,-1.3462,-1.3473,-1.3497,-1.3497,-1.3501,-1.3502,-1.351,-1.3518,-1.3521,-1.3489,-1.3489,-1.3489,-1.3489,0,0,-1.3189,-1.3236,-1.324,-1.3257,-1.3292,-1.331,-1.3332,-1.3361,-1.3375,-1.3399,-1.3419,-1.3453,-1.3458,-1.3475,-1.3489,-1.3503,-1.3517,-1.3506,-1.3507,-1.3509,-1.3547,-1.3545,-1.3548,-1.3524,-1.3524,-1.3525,-1.3546,0,-1.3202,-1.3243,-1.3263,-1.3296,-1.3318,-1.3336,-1.3356,-1.338,-1.3397,-1.3419,-1.3438,-1.3462,-1.3466,-1.3477,-1.3491,-1.3512,-1.3526,-1.3511,-1.3544,-1.3545,-1.3538,-1.3552,-1.3549,-1.3567,-1.3549,-1.3549,-1.3549,0,-1.3222,-1.3247,-1.3282,-1.3316,-1.3326,-1.3344,-1.3373,-1.3394,-1.3422,-1.3433,-1.3454,-1.3468,-1.3493,-1.3491,-1.3528,-1.3517,-1.3532,-1.3545,-1.3546,-1.3551,-1.3548,-1.3558,-1.3573,-1.3577,-1.3554,-1.3554,-1.3553,0,-1.3218,-1.326,-1.3287,-1.3301,-1.334,-1.3353,-1.337,-1.3398,-1.3415,-1.344,-1.3452,-1.348,-1.3496,-1.3518,-1.3539,-1.3536,-1.3574,-1.3574,-1.3586,-1.3585,-1.3594,-1.3593,-1.3613,-1.3601,-1.3601,-1.3601,-1.36,0,-1.323,-1.3251,-1.3286,-1.3303,-1.3328,-1.3351,-1.3375,-1.3394,-1.3419,-1.344,-1.3457,-1.3476,-1.3503,-1.3527,-1.3543,-1.3572,-1.3579,-1.359,-1.3594,-1.3589,-1.3588,-1.36,-1.36,-1.3601,-1.3601,-1.3601,-1.3601,0,-1.3229,-1.3253,-1.3284,-1.332,-1.333,-1.3347,-1.3378,-1.3395,-1.3414,-1.3441,-1.3449,-1.3478,-1.3507,-1.3531,-1.3568,-1.3579,-1.361,-1.3614,-1.3601,-1.3603,-1.3615,-1.3614,-1.3644,-1.365,-1.3632,-1.3632,-1.3632,0,-1.3236,-1.3253,-1.3292,-1.3308,-1.3325,-1.335,-1.3368,-1.3392,-1.341,-1.3444,-1.3458,-1.3488,-1.3514,-1.3559,-1.3584,-1.3613,-1.3619,-1.3628,-1.3624,-1.3619,-1.3622,-1.3621,-1.3624,-1.3628,-1.3629,-1.3629,-1.3629,0,-1.3247,-1.3258,-1.3284,-1.3314,-1.3335,-1.336,-1.3385,-1.3397,-1.3426,-1.3446,-1.3476,-1.3496,-1.3535,-1.3565,-1.3598,-1.3616,-1.3628,-1.363,-1.3635,-1.363,-1.3622,-1.3629,-1.3603,-1.3629,-1.3629,-1.3629,-1.3629,-1.3629,-1.3251,-1.3268,-1.3298,-1.3327,-1.3349,-1.3373,-1.3392,-1.3414,-1.3439,-1.3473,-1.3486,-1.3517,-1.3547,-1.3592,-1.361,-1.3636,-1.3637,-1.3643,-1.3645,-1.3646,-1.3647,-1.3617,-1.3641,-1.3641,-1.3641,-1.3641,-1.3641,0,-1.3264,-1.3285,-1.3311,-1.3346,-1.3369,-1.3379,-1.3408,-1.3427,-1.3454,-1.3481,-1.3506,-1.3542,-1.3572,-1.36,-1.3632,-1.3647,-1.3653,-1.3654,-1.3654,-1.3659,-1.3643,-1.3637,-1.3649,-1.3649,-1.3649,-1.3649,-1.3649,-1.3649,-1.3273,-1.3303,-1.3319,-1.336,-1.3381,-1.3413,-1.3429,-1.3451,-1.3473,-1.3513,-1.3538,-1.3557,-1.3584,-1.3619,-1.3647,-1.3655,-1.3666,-1.3667,-1.3676,-1.3661,-1.3659,-1.3658,-1.3653,-1.3668,-1.3668,-1.369,-1.369,-1.369]}]]